Regional Weather Roundup
Issued by NWS

Home | Current Version | Previous Version | Graphics & Text | Print | Product List | Glossary Off
Versions: 1 2 3 4 5 6 7 8 9 10 11 12 13 14 15 16 17 18 19 20 21 22 23 24 25 26 27 28 29 30 31 32 33 34 35 36 37 38 39 40 41 42 43 44 45 46 47 48 49 50

000
ASUS43 KMPX 251010
RWRMN
WEATHER ROUNDUP FOR MINNESOTA
NATIONAL WEATHER SERVICE TWIN CITIES/CHANHASSEN MN
400 AM CST TUE NOV 25 2014


NOTE: "FAIR" INDICATES FEW OR NO CLOUDS BELOW 12,000 FEET WITH NO
SIGNIFICANT WEATHER AND/OR OBSTRUCTIONS TO VISIBILITY. N/A MEANS
CURRENT SKY AND/OR WEATHER CONDITIONS ARE NOT AVAILABLE.

MNZ060>063-068>070-251100-
   Twin Cities Metro

CITY           SKY/WX    TMP DP  RH WIND       PRES   REMARKS
TWIN CITIES    CLEAR     12   7  80 NW9       30.00R WCI   0
ST PAUL        CLEAR     13   8  81 NW8       30.02R WCI   2
CRYSTAL        CLEAR     13   7  77 NW9       29.99R WCI   1
BLAINE         CLEAR     12  10  92 W8        29.98R WCI   1
LAKEVILLE      CLEAR      9   7  92 W6        29.99S WCI  -1
EDEN PRAIRIE   CLEAR     13   7  77 W7        30.00R WCI   3
SOUTH ST PAUL  CLEAR     14   9  79 W3        30.00R
LAKE ELMO      MOCLDY    14  10  85 NW7       29.99R WCI   4
$$
MNZ001>005-007-008-013>017-022>024-027-028-251100-
   Northwest Minnesota

CITY           SKY/WX    TMP DP  RH WIND       PRES   REMARKS
BEMIDJI        CLEAR      0  -4  85 W5        29.93F WCI -10
HALLOCK        MOCLDY     7   3  85 S6        29.95F WCI  -3
ROSEAU         CLEAR      1  -4  78 CALM      29.93S
WARROAD        CLEAR      0  -4  85 CALM      29.92F
THIEF RVR FALL CLOUDY    10   3  72 S6        29.94F WCI   1
CROOKSTON      CLOUDY    12   7  79 S7        29.98S WCI   2
FOSSTON        CLOUDY     3   1  92 CALM      29.95F
DETROIT LAKES  CLOUDY    12   5  73 CALM      29.96F
MOORHEAD       CLOUDY    16  10  79 S5        30.00S WCI   9
PARK RAPIDS    CLEAR      1  -3  83 NW6       29.94F WCI -10
MAHNOMEN       CLOUDY     8   3  79 S3        29.95F
$$
MNZ006-009>011-018-025>026-251100-
   North Central Minnesota

CITY           SKY/WX    TMP DP  RH WIND       PRES   REMARKS
BAUDETTE       CLEAR     -1  -4  87 SW3       29.91F
FLAG ISLAND    CLEAR      0  -6  78 CALM      29.90F
INTL FALLS     PTCLDY     3  -1  83 W3        29.91F
WASKISH        CLEAR      5   1  85 CALM      29.93F
BIG FORK       PTCLDY     3   0  85 CALM      29.93F
LONGVILLE      CLEAR      3   0  85 CALM      29.95S
GRAND RAPIDS   CLOUDY     9   3  78 W9        29.92R WCI  -5
CRANE LAKE     LGT SNOW   3   1  92 CALM      29.93S
ORR            FLURRIES   9   5  85 NW8       29.88S WCI  -4
COOK           LGT SNOW  10   7  85 W5        29.90S WCI   2
WALKER         FAIR       2  -1  85 CALM      29.95S
$$
MNZ012-019>021-037-251100-
   Northeast Minnesota

CITY           SKY/WX    TMP DP  RH WIND       PRES   REMARKS
DULUTH         LGT SNOW  12   7  80 NW14      29.85S WCI  -3
ELY            FLURRIES   1   0  92 W3        29.88R
HIBBING        CLOUDY     9   4  80 NW3       29.91R HAZE
EVELETH        LGT SNOW  12   9  85 NW6       29.90S WCI   3
DULUTH HARBOR  PTCLDY    18  10  73 NW6       29.95R WCI   9
TWO HARBORS    PTCLDY    16   9  73 NW5       29.86R WCI   9
SILVER BAY     PTCLDY    12   7  79 NW8       29.85R WCI   1
GRAND MARAIS     N/A     13   5  70 N13G37    29.83R WCI  -2
G MARAIS ARPRT FLURRIES   5   0  78 NW12      29.78S WCI -11
$$
MNZ029>031-032-039>041-046>048-054>057-064-251100-
   West Central Minnesota

CITY           SKY/WX    TMP DP  RH WIND       PRES   REMARKS
FERGUS FALLS   CLOUDY    10   3  72 CALM      30.03F
WHEATON        PTCLDY    12   7  79 CALM      30.03F
MORRIS           N/A      9   3  78 CALM      29.99F
ALEXANDRIA     CLEAR      7   1  76 W5        29.97F WCI  -2
ELBOW LAKE       N/A      9   4  82 CALM      29.99F
WADENA         CLEAR      3   1  92 CALM      29.95F
GLENWOOD       CLEAR      7   1  78 W5        29.99S WCI  -2
APPLETON       PTCLDY    10   5  79 CALM      30.01F
BENSON         MOCLDY     7   1  78 CALM      30.01F
ORTONVILLE     CLOUDY    12   3  67 W3        30.01F
MADISON        PTCLDY    16   7  67 SW3       30.03F
WILLMAR        FAIR      10   3  72 W8        30.02F WCI  -1
$$
MNZ033>034-036-042>043-049>051-058-059-251100-
   Central Minnesota

CITY           SKY/WX    TMP DP  RH WIND       PRES   REMARKS
ST CLOUD       FAIR      10   4  76 NW8       30.00R WCI  -2
SAUK CENTRE    FAIR       6   2  86 W7        29.99S WCI  -6
PAYNESVILLE    CLEAR      5   2  88 SW7       30.01S WCI  -7
AITKIN         CLEAR     10   3  72 W3        29.94S
PINE RIVER     CLEAR      3   1  92 W3        29.99S
BRAINERD       CLEAR      7   3  84 NW3       29.97R
STAPLES        CLEAR      3   1  92 W3        29.97S
LONG PRAIRIE   FAIR       9   3  78 W3        29.98S
LITTLE FALLS   CLEAR      9   3  78 CALM      29.99S
LITCHFIELD     CLEAR     10   9  92 NW8       30.01S WCI  -1
BUFFALO        CLEAR     11   7  81 W8        30.01S WCI   0
MAPLE LAKE     FAIR      11   8  87 W7        30.01R WCI   1
$$
MNZ037-044-045-052-053-251100-
   East Central Minnesota

CITY           SKY/WX    TMP DP  RH WIND       PRES   REMARKS
PRINCETON      CLEAR     10   7  85 W8        29.98R WCI  -1
MORA           CLEAR     12   9  85 NW7       29.97S WCI   2
CAMBRIDGE      CLEAR     12   5  73 W6        29.96R WCI   3
RUSH CITY      PTCLDY    10   8  89 CALM      29.97S
MOOSE LAKE     LGT SNOW  14   9  79 NW5       29.92R WCI   6
HINCKLEY       FAIR      14  10  85 CALM      29.95S
CLOQUET        FLURRIES  12   7  79 NW14      29.90S WCI  -3
MCGREGOR       CLOUDY    12   9  85 NW6       29.95S WCI   3
$$
MNZ071>073-080-081-089-090-097-098-251100-
   Southwest Minnesota

CITY           SKY/WX    TMP DP  RH WIND       PRES   REMARKS
MONTEVIDEO     CLEAR     10   7  85 CALM      30.04F
GRANITE FALLS  PTCLDY     9   4  81 W3        30.06S
CANBY          CLOUDY    14   6  69 SW3       30.04F
MARSHALL       CLEAR     10   1  67 W6        30.03F WCI   1
REDWOOD FALLS  CLEAR     13   5  70 NW9       30.04R WCI   1
OLIVIA         CLEAR     12   5  73 NW7       30.03S WCI   2
PIPESTONE      MOCLDY    12   3  67 NW7       30.02S WCI   2
WINDOM         CLEAR     10   7  85 W9        30.02S WCI  -2
WORTHINGTON    CLEAR      9   1  72 W7        30.04R WCI  -3
JACKSON        CLEAR     14   5  67 W12       30.03R WCI   0
TRACY          CLEAR     13   5  70 W5        30.04S WCI   5
SLAYTON        CLEAR     11   5  74 W8        30.02F WCI   0
$$
MNZ065>067-074>077-082>085-091>093-251100-
   South Central Minnesota

CITY           SKY/WX    TMP DP  RH WIND       PRES   REMARKS
MANKATO        FAIR      10   3  72 NW14      30.01R WCI  -5
NEW ULM        CLEAR     10   7  85 NW10      30.03S WCI  -3
ST JAMES       CLEAR     14   7  73 W13       30.05R WCI   0
FAIRMONT       CLEAR     14   7  73 W12       30.02R WCI   0
GLENCOE        CLEAR     13   9  87 W9        30.01R WCI   0
FARIBAULT      CLEAR     10   7  85 W7        30.00R WCI   0
OWATONNA       CLEAR     10   7  85 W6        29.99S WCI   1
WASECA         CLEAR     12   5  73 W8        30.02S WCI   1
ALBERT LEA     CLEAR     12   9  85 NW6       29.99R WCI   3
$$
MNZ078>079-086>088-094>096-251100-
   Southeast Minnesota

CITY           SKY/WX    TMP DP  RH WIND       PRES   REMARKS
ROCHESTER      PTCLDY    11   7  84 NW13      29.96R WCI  -4
RED WING       FLURRIES  18  10  73 NW8       29.98R WCI   7
STANTON        CLEAR     12   8  83 W6        29.99R WCI   2
DODGE CENTER   PTCLDY    10   9  92 W12       29.96R WCI  -4
WINONA         CLOUDY    21  14  73 NW14G20   29.97R WCI   8
AUSTIN         CLEAR     10   7  85 NW10      29.98R WCI  -3
PRESTON        CLOUDY    13  10  85 NW14      29.96R WCI  -2
$$
ABBREVIATIONS USED IN REMARKS
   TC - TEMPERATURES IN CELSIUS
  WCI - WIND CHILL INDEX
   HX - HEAT INDEX
  VSB - VISIBILITY
$$


USA.gov is the U.S. government's official web portal to all federal, state and local government web resources and services.